Weather History for Stuttgart Echterdingen, Germany

Change the Weather History Date:

Monday, January 21, 2013

  Actual Average Record
Temperature  
Mean Temperature 29 °F -  
Max Temperature 34 °F 40 °F 51 °F (1999)
Min Temperature 24 °F 27 °F 24 °F (2013)
Degree Days  
Heating Degree Days 36    
Moisture  
Dew Point 27 °F    
Average Humidity 88    
Maximum Humidity 100    
Minimum Humidity 71    
Precipitation  
Precipitation 0.04 in - - ()
Sea Level Pressure  
Sea Level Pressure 29.46 in    
Wind  
Wind Speed 2 mph ()    
Max Wind Speed 5 mph    
Max Gust Speed -    
Visibility 3.9 miles    
Events Rain , Snow    
Averages and records for this station are not official NWS values.
T = Trace of Precipitation, MM = Missing Value Source: Averaged Metar Reports

Daily Weather History Graph

Daily Weather History Graph

Search for Another Location

Airport:

Trip Planner

Search our weather history database for the weather conditions in past years. The results will help you decide how hot, cold, wet, or windy it might be!

Date:

Astronomy

Jan. 21, 2013 Rise Set
Actual Time 8:05 AM CET 5:03 PM CET
Civil Twilight 7:30 AM CET 5:38 PM CET
Nautical Twilight 6:51 AM CET 6:17 PM CET
Astronomical Twilight 6:14 AM CET 6:54 PM CET
Moon 12:31 PM CET (1/21) 3:18 AM CET (1/21)
Length of Visible Light 10h 08m
Length of Day
8h 58m
Waxing Gibbous, 73% of the Moon is Illuminated
Jan 21
Waxing Gibbous
Jan 27
Full
Feb 3
Last Quarter
Feb 10
New
Feb 17
First Quarter

Hourly Weather History & Observations

Time (CET) Temp. Windchill Dew Point Humidity Pressure Visibility Wind Dir Wind Speed Gust Speed Precip Events Conditions
12:00 AM 28 °F - 24 °F 79% 29.46 in 6 mi SE 2.2 mph - -   Mostly Cloudy
12:20 AM 28.4 °F 24.6 °F 23.0 °F 80% 29.39 in 6.2 mi SE 3.5 mph - N/A   Mostly Cloudy
12:50 AM 28.4 °F - 23.0 °F 80% 29.39 in 5.0 mi SE 2.3 mph - N/A Rain Light Freezing Rain
1:00 AM 28 °F - 24 °F 81% 29.46 in 5 mi ESE 2.2 mph - -   Light Freezing Rain
1:20 AM 26.6 °F - 24.8 °F 93% 29.39 in 4.3 mi Variable 1.2 mph - N/A Rain Light Freezing Rain
1:50 AM 26.6 °F - 24.8 °F 93% 29.39 in 4.3 mi ENE 2.3 mph - N/A Rain Light Freezing Rain
2:00 AM 27 °F - 25 °F 91% 29.47 in 4 mi North 2.2 mph - -   Light Freezing Rain
2:20 AM 26.6 °F - 24.8 °F 93% 29.39 in 3.7 mi East 1.2 mph - N/A Snow Light Freezing Rain
2:50 AM 26.6 °F - 24.8 °F 93% 29.39 in 2.8 mi Variable 1.2 mph - N/A Snow Light Freezing Rain
3:00 AM 27 °F - 26 °F 94% 29.48 in 3 mi Calm Calm - - Rain Light Freezing Drizzle
3:20 AM 26.6 °F - 26.6 °F 100% 29.42 in 1.7 mi Variable 1.2 mph - N/A Snow Light Freezing Rain
3:50 AM 28.4 °F - 26.6 °F 93% 29.42 in 1.7 mi East 2.3 mph - N/A Snow Snow Grains
4:20 AM 28.4 °F - 26.6 °F 93% 29.42 in 1.6 mi NE 2.3 mph - N/A Snow Snow Grains
4:50 AM 28.4 °F - 26.6 °F 93% 29.42 in 1.6 mi Variable 1.2 mph - N/A Snow Snow Grains
5:00 AM 28 °F - 27 °F 92% 29.50 in 2 mi ESE 2.2 mph - - Snow Snow Grains
5:20 AM 28.4 °F - 26.6 °F 93% 29.42 in 1.6 mi East 2.3 mph - N/A Snow Snow
5:50 AM 28.4 °F - 26.6 °F 93% 29.42 in 1.6 mi NE 1.2 mph - N/A Snow Snow
6:00 AM 28 °F - 27 °F 92% 29.50 in 2 mi NNE 2.2 mph - - Snow Snow
6:20 AM 28.4 °F - 26.6 °F 93% 29.42 in 1.9 mi ENE 2.3 mph - N/A Snow Snow
6:50 AM 28.4 °F - 26.6 °F 93% 29.44 in 1.7 mi ESE 1.2 mph - N/A Snow Snow
7:00 AM 28 °F - 27 °F 93% 29.52 in 2 mi ESE 2.2 mph - - Snow Snow
7:20 AM 28.4 °F - 26.6 °F 93% 29.44 in 1.4 mi East 1.2 mph - N/A Snow Snow
7:50 AM 28.4 °F - 26.6 °F 93% 29.44 in 1.6 mi East 1.2 mph - N/A Snow Light Snow
8:00 AM 28 °F - 27 °F 94% 29.52 in 2 mi East 2.2 mph - - Snow Light Snow
8:20 AM 28.4 °F - 26.6 °F 93% 29.44 in 1.6 mi SE 1.2 mph - N/A Snow Light Snow
8:50 AM 28.4 °F - 26.6 °F 93% 29.44 in 1.4 mi SSE 2.3 mph - N/A Snow Snow
9:00 AM 28 °F - 27 °F 96% 29.54 in 1 mi SSE 2.2 mph - - Snow Snow
9:20 AM 28.4 °F - 26.6 °F 93% 29.47 in 1.3 mi SSE 2.3 mph - N/A Snow Light Snow
9:50 AM 28.4 °F - 26.6 °F 93% 29.47 in 1.7 mi SE 2.3 mph - N/A Snow Light Snow
10:20 AM 30.2 °F 26.7 °F 26.6 °F 86% 29.47 in 1.9 mi SE 3.5 mph - N/A Snow Light Snow
10:50 AM 30.2 °F - 26.6 °F 86% 29.47 in - SE 2.3 mph - N/A Snow Light Snow
11:00 AM 30 °F - 28 °F 88% 29.54 in 2 mi SE 2.2 mph - - Snow Light Snow
11:20 AM 30.2 °F - 26.6 °F 86% 29.47 in - SSE 2.3 mph - N/A   Mostly Cloudy
11:50 AM 30.2 °F - 28.4 °F 93% 29.44 in 2.5 mi ENE 1.2 mph - N/A   Mostly Cloudy
12:00 PM 31 °F - 28 °F 85% 29.53 in 2 mi ENE 2.2 mph - - Snow Light Snow
12:20 PM 32.0 °F - 28.4 °F 87% 29.44 in 2.8 mi Variable 1.2 mph - N/A   Mostly Cloudy
12:50 PM 32.0 °F - 26.6 °F 80% 29.44 in 3.7 mi Variable 1.2 mph - N/A   Mostly Cloudy
1:00 PM 33 °F - 28 °F 75% 29.52 in 4 mi Calm Calm - -   Mist
1:20 PM 32.0 °F - 26.6 °F 80% 29.44 in 5.0 mi ENE 2.3 mph - N/A   Mostly Cloudy
1:50 PM 32.0 °F - 26.6 °F 80% 29.44 in 6.2 mi Variable 2.3 mph - N/A   Mostly Cloudy
2:00 PM 33 °F - 27 °F 71% 29.51 in 6 mi ENE 2.2 mph - -   Overcast
2:20 PM 32.0 °F - 26.6 °F 80% 29.44 in 6.2 mi Calm Calm - N/A   Mostly Cloudy
2:50 PM 32.0 °F - 24.8 °F 75% 29.44 in 6.2 mi NNE 2.3 mph - N/A   Mostly Cloudy
3:00 PM 32 °F - 26 °F 71% 29.51 in 9 mi North 2.2 mph - -   Overcast
3:20 PM 32.0 °F - 26.6 °F 80% 29.44 in 6.2 mi Calm Calm - N/A   Mostly Cloudy
3:50 PM 32.0 °F - 24.8 °F 75% 29.44 in 6.2 mi East 2.3 mph - N/A   Mostly Cloudy
4:20 PM 32.0 °F - 24.8 °F 75% 29.44 in 6.2 mi SE 2.3 mph - N/A   Mostly Cloudy
4:50 PM 30.2 °F - 24.8 °F 80% 29.44 in 6.2 mi ESE 1.2 mph - N/A   Scattered Clouds
5:00 PM 31 °F - 26 °F 72% 29.52 in 9 mi East 2.2 mph - -   Partly Cloudy
5:20 PM 28.4 °F - 24.8 °F 86% 29.44 in 6.2 mi East 1.2 mph - N/A   Scattered Clouds
5:50 PM 28.4 °F - 24.8 °F 86% 29.44 in 6.2 mi ESE 1.2 mph - N/A Snow Light Snow
6:00 PM 29 °F - 26 °F 83% 29.54 in 6 mi ESE 2.2 mph - - Snow Light Snow
6:20 PM 30.2 °F - 26.6 °F 86% 29.47 in - SE 1.2 mph - N/A Snow Light Snow
6:50 PM 30.2 °F - 26.6 °F 86% 29.47 in 3.7 mi East 2.3 mph - N/A Snow Light Snow
7:00 PM 30 °F - 28 °F 89% 29.54 in 4 mi East 2.2 mph - - Snow Light Snow
7:20 PM 30.2 °F 26.7 °F 26.6 °F 86% 29.47 in - East 3.5 mph - N/A Snow Light Snow
7:50 PM 30.2 °F 25.4 °F 28.4 °F 93% 29.47 in - East 4.6 mph - N/A Snow Light Snow
8:00 PM 29 °F - 28 °F 96% 29.55 in 3 mi East 4.5 mph - - Snow Light Snow
8:20 PM 28.4 °F 24.6 °F 28.4 °F 100% 29.47 in - East 3.5 mph - N/A   Mostly Cloudy
8:50 PM 28.4 °F 24.6 °F 28.4 °F 100% 29.47 in - East 3.5 mph - N/A   Mostly Cloudy
9:00 PM 29 °F - 28 °F 97% 29.56 in 3 mi East 2.2 mph - - Snow Light Snow
9:20 PM 30.2 °F - 28.4 °F 93% 29.47 in - ESE 2.3 mph - N/A   Mostly Cloudy
9:50 PM 30.2 °F - 28.4 °F 93% 29.47 in 5.0 mi SE 2.3 mph - N/A   Mostly Cloudy
10:20 PM 30.2 °F - 28.4 °F 93% 29.47 in 6.2 mi Variable 1.2 mph - N/A   Mostly Cloudy
10:50 PM 30.2 °F - 28.4 °F 93% 29.47 in 6.2 mi Variable 1.2 mph - N/A   Mostly Cloudy
11:00 PM 30 °F - 29 °F 95% 29.56 in 7 mi West 2.2 mph - -   Mostly Cloudy
11:20 PM 30.2 °F - 28.4 °F 93% 29.47 in 6.2 mi Variable 1.2 mph - N/A   Mostly Cloudy
11:50 PM 30.2 °F - 28.4 °F 93% 29.50 in 6.2 mi East 2.3 mph - N/A   Mostly Cloudy